Location: Unspecified
(0.0000°N, 0.0000°E)
Time: 16:39:53
(UTC+00:00)

Vanguard 2 Rocket - Visible Passes

Search period start: 02 September 2014 00:00
Search period end: 12 September 2014 00:00
Orbit: 554 x 3335 km, 32.9° (Epoch: 02 September)

Date Brightness Start Highest point End Pass type
(mag) Time Alt. Az. Time Alt. Az. Time Alt. Az.
02 Sep 9.0 03:28:30 33° S 03:28:30 33° S 03:37:21 10° SE visible
02 Sep 9.8 05:37:13 10° SW 05:45:00 18° S 05:55:18 10° SSE visible
03 Sep 9.8 02:33:43 19° SE 02:33:43 19° SE 02:36:56 10° SE visible
03 Sep 9.4 04:39:39 16° SW 04:44:07 20° SSW 04:53:49 10° SSE visible
04 Sep 9.3 03:44:48 23° S 03:44:48 23° S 03:53:04 10° SSE visible
05 Sep 9.8 02:49:55 17° SSE 02:49:55 17° SSE 02:52:52 10° SSE visible
05 Sep 9.8 04:57:16 10° SW 05:02:45 14° S 05:09:36 10° SSE visible
06 Sep 9.6 04:00:54 15° SSW 04:02:09 15° S 04:08:20 10° SSE visible
07 Sep 9.9 03:05:55 14° S 03:05:55 14° S 03:08:09 10° SSE visible
07 Sep 10.1 05:18:02 10° SSW 05:21:44 12° S 05:25:57 10° SSE visible
08 Sep 9.9 04:19:30 10° S 04:20:46 10° S 04:22:07 10° S visible
09 Sep 10.3 05:37:12 10° S 05:40:53 11° SSE 05:45:00 10° SSE visible
